El Centro, CA

12:04 PM PDT on June 23, 2017 (GMT -0700)
El Centro Naval Air Facility

Weather History for KNJK - October, 2013

Change the Weather History Date:

Monday, October 28, 2013

  Actual Average Record
Temperature  
Mean Temperature 70 °F -  
Max Temperature 78 °F 80 °F 96 °F (2008)
Min Temperature 64 °F 56 °F 43 °F (1996)
Cooling Degree Days 6    
Growing Degree Days 20 (Base 50)    
Moisture  
Dew Point 48 °F    
Average Humidity 46    
Maximum Humidity 54    
Minimum Humidity 37    
Precipitation  
Precipitation 0.00 in - - ()
Sea Level Pressure  
Sea Level Pressure 29.82 in    
Wind  
Wind Speed 27 mph (WSW)    
Max Wind Speed 36 mph    
Max Gust Speed 45 mph    
Visibility 10 miles    
Events      
Averages and records for this station are not official NWS values.
T = Trace of Precipitation, MM = Missing Value Source: NWS Daily Summary

Daily Weather History Graph

Daily Weather History Graph

Search for Another Location

Airport or City:

Trip Planner

Search our weather history database for the weather conditions in past years. The results will help you decide how hot, cold, wet, or windy it might be!

Date:

Astronomy

Oct. 28, 2013 Rise Set
Actual Time 6:57 AM PDT 5:55 PM PDT
Civil Twilight 6:32 AM PDT 6:20 PM PDT
Nautical Twilight 6:03 AM PDT 6:49 PM PDT
Astronomical Twilight 5:34 AM PDT 7:18 PM PDT
Moon 1:12 AM PDT (10/28) 2:22 PM PDT (10/28)
Length of Visible Light 11h 48m
Length of Day
10h 57m
Waning Crescent, 33% of the Moon is Illuminated
Oct 28
Waning Crescent
Nov 3
New
Nov 9
First Quarter
Nov 17
Full
Nov 25
Last Quarter

Hourly Weather History & Observations

Time (PDT) Temp. Dew Point Humidity Pressure Visibility Wind Dir Wind Speed Gust Speed Precip Events Conditions
12:56 AM 70.0 °F 43.0 °F 38% 29.74 in 10.0 mi SW 32.2 mph 41.4 mph N/A   Clear
1:56 AM 66.9 °F 48.0 °F 51% 29.77 in 10.0 mi WSW 27.6 mph 38.0 mph N/A   Clear
2:56 AM 66.0 °F 48.9 °F 54% 29.77 in 10.0 mi WSW 32.2 mph 44.9 mph N/A   Clear
3:56 AM 66.0 °F 48.9 °F 54% 29.77 in 10.0 mi WSW 25.3 mph 33.4 mph N/A   Clear
4:56 AM 66.9 °F 48.9 °F 52% 29.77 in 10.0 mi WSW 29.9 mph - N/A   Clear
5:56 AM 66.9 °F 50.0 °F 54% 29.78 in 10.0 mi WSW 23.0 mph 32.2 mph N/A   Clear
6:56 AM 66.9 °F 50.0 °F 54% 29.79 in 10.0 mi WSW 20.7 mph - N/A   Partly Cloudy
7:56 AM 69.1 °F 50.0 °F 51% 29.81 in 10.0 mi SW 24.2 mph 35.7 mph N/A   Partly Cloudy
8:56 AM 71.1 °F 50.0 °F 47% 29.81 in 10.0 mi SW 29.9 mph 40.3 mph N/A   Partly Cloudy
9:56 AM 73.0 °F 50.0 °F 44% 29.82 in 10.0 mi SW 35.7 mph 42.6 mph N/A   Partly Cloudy
10:56 AM 75.0 °F 51.1 °F 43% 29.84 in 10.0 mi SW 35.7 mph 43.7 mph N/A   Partly Cloudy
11:56 AM 75.9 °F 50.0 °F 40% 29.84 in 10.0 mi WSW 29.9 mph 39.1 mph N/A   Partly Cloudy
12:56 PM 77.0 °F 48.9 °F 37% 29.83 in 10.0 mi WSW 20.7 mph 33.4 mph N/A   Partly Cloudy
1:56 PM 77.0 °F 48.9 °F 37% 29.81 in 10.0 mi West 26.5 mph 36.8 mph N/A   Partly Cloudy
2:56 PM 75.9 °F 48.9 °F 38% 29.80 in 10.0 mi WSW 32.2 mph 40.3 mph N/A   Partly Cloudy
3:56 PM 73.9 °F 48.0 °F 40% 29.80 in 10.0 mi West 32.2 mph 40.3 mph N/A   Partly Cloudy
4:56 PM 72.0 °F 48.0 °F 43% 29.81 in 10.0 mi WSW 29.9 mph 36.8 mph N/A   Partly Cloudy
5:56 PM 68.0 °F 48.0 °F 49% 29.82 in 10.0 mi WSW 35.7 mph 42.6 mph N/A   Partly Cloudy
6:56 PM 66.9 °F 46.9 °F 49% 29.84 in 10.0 mi WSW 24.2 mph 33.4 mph N/A   Partly Cloudy
7:56 PM 66.0 °F 45.0 °F 47% 29.87 in 10.0 mi West 12.7 mph - N/A   Partly Cloudy
8:56 PM 64.9 °F 45.0 °F 48% 29.89 in 10.0 mi West 15.0 mph - N/A   Partly Cloudy
9:56 PM 64.0 °F 45.0 °F 50% 29.91 in 10.0 mi WNW 9.2 mph - N/A   Partly Cloudy
10:56 PM 64.0 °F 43.0 °F 46% 29.93 in 10.0 mi SW 16.1 mph - N/A   Partly Cloudy
11:56 PM 64.9 °F 43.0 °F 45% 29.92 in 10.0 mi SW 17.3 mph 25.3 mph N/A   Clear